Regional Weather Roundup
Issued by NWS

Home | Current Version | Previous Version | Graphics & Text | Print | Product List | Glossary On
Versions: 1 2 3 4 5 6 7 8 9 10 11 12 13 14 15 16 17 18 19 20 21 22 23 24 25 26 27 28 29 30 31 32 33 34 35 36 37 38 39 40 41 42 43 44 45 46 47 48 49 50
000
ASUS45 KBOI 300810
RWRID

IDAHO REGIONAL WEATHER ROUNDUP
NATIONAL WEATHER SERVICE BOISE ID
200 AM MDT SUN AUG 30 2015

NOTE: "FAIR" INDICATES FEW OR NO CLOUDS BELOW 12000 FEET
WITH NO SIGNIFICANT WEATHER AND/OR OBSTRUCTIONS TO VISIBILITY

IDZ012-014-300900-
SOUTHWEST IDAHO


CITY           SKY/WX    TMP DP  RH WIND       PRES   REMARKS
BOISE          CLOUDY    73  47  39 S6        29.88R
CALDWELL       CLOUDY    72  37  28 W9        29.87R
MOUNTAIN HOME  CLOUDY    69  58  68 NE2       29.89F
$$

IDZ016-017-300900-
SOUTHCENTRAL IDAHO


CITY           SKY/WX    TMP DP  RH WIND       PRES   REMARKS
BURLEY         MOCLDY    59  50  72 SW9       29.92R
JEROME         PTCLDY    67  46  47 SW9       29.93R
TWIN FALLS     MOCLDY    73  40  30 SW12      29.95R
$$

IDZ019>023-300900-
SOUTHEAST IDAHO


CITY           SKY/WX    TMP DP  RH WIND       PRES   REMARKS
IDAHO FALLS    MOCLDY    61  56  83 CALM      29.90F
POCATELLO      CLEAR     61  58  90 SW12      29.92R
REXBURG        CLOUDY    62  54  74 NE6       29.92R
$$

IDZ006-010-011-018-031-032-300900-
CENTRAL IDAHO MOUNTAINS


CITY           SKY/WX    TMP DP  RH WIND       PRES   REMARKS
MCCALL         CLOUDY    56  51  84 CALM      29.94R
HAILEY         MOCLDY    64  45  48 CALM      29.99F
STANLEY          N/A     58  46  64 W10       30.09R
SALMON         CLOUDY    64  43  45 N5        29.81S
CHALLIS        CLOUDY    72  39  30 S12       29.91F
$$

IDZ002-004-006-007-026-300900-
NORTHERN IDAHO


CITY           SKY/WX    TMP DP  RH WIND       PRES   REMARKS
LEWISTON       NOT AVBL
LOWELL           N/A     59  57  93 CALM      29.89R
COEUR D`ALENE  PTCLDY    61  46  59 S10       29.85S
MULLAN PASS    CLOUDY    48  40  73 NW5       29.97F
$$


USA.gov is the U.S. government's official web portal to all federal, state and local government web resources and services.